This demonstration page uses our WeatherBlox Daily Observations layout. Learn more.

Left ArrowRight Arrow

41.12389, -100.76542

Hourly Observations for July 4, 2016

Temp ( °F °C ) Dew Point ( °F °C ) Humidity (%) Winds ( mph kmh ) Pressure ( in mb ) Visibility ( mi km ) Precip ( " mm )
12:02 am 00:02 Partly Cloudy with Mist and Fog 61 16.1 60 15.6 97 97 E 6 9 29.85 1011 3 5 0.00 0.00
12:11 am 00:11 Mostly Cloudy with Mist and Fog 61 16 61 16 100 100 ESE 5 7 29.85 1011 4 6 0.00 0.00
12:53 am 00:53 Cloudy 64 17.8 62 16.7 93 93 SSE 9 15 29.89 1012 7 11 0.00 0.00
1:25 am 01:25 Cloudy 64 18 63 17 94 94 S 13 20 29.85 1011 7 11 0.00 0.00
1:53 am 01:53 Cloudy with Mist and Fog 64 17.8 63 17.2 96 96 SSE 9 15 29.87 1012 6 10 0.00 0.00
2:53 am 02:53 Cloudy with Mist and Fog 64 17.8 63 17.2 96 96 SSE 6 9 29.85 1011 6 10 0.00 0.00
3:53 am 03:53 Cloudy with Mist and Fog 64 17.8 63 17.2 96 96 S 8 13 29.83 1010 3 5 0.00 0.00
4:26 am 04:26 Cloudy with Mist and Fog 64 18 63 17 94 94 SSE 8 13 29.83 1010 3 4 0.00 0.00
4:53 am 04:53 Cloudy with Mist and Fog 64 17.8 63 17.2 96 96 SSW 6 9 29.83 1010 3 4 0.00 0.00
5:05 am 05:05 Cloudy with Mist and Fog 64 18 63 17 94 94 S 7 11 29.83 1010 3 5 0.00 0.00
5:53 am 05:53 Cloudy 65 18.3 64 17.8 97 97 WSW 6 9 29.84 1011 7 11 0.00 0.00
6:09 am 06:09 Cloudy 64 18 64 18 100 100 SSW 8 13 29.83 1010 7 11 0.00 0.00
6:53 am 06:53 Cloudy with Mist and Fog 65 18.3 64 17.8 97 97 S 5 7 29.83 1010 3 5 0.00 0.00
7:16 am 07:16 Cloudy with Mist and Fog 64 18 64 18 100 100 Calm 29.83 1010 4 6 0.00 0.00
7:46 am 07:46 Cloudy with Mist and Fog 66 18.9 65 18.3 96 96 S 3 6 29.80 1009 3 4 0.00 0.00
7:53 am 07:53 Cloudy with Mist and Fog 66 18.9 65 18.3 96 96 S 3 6 29.84 1011 3 5 0.00 0.00
8:25 am 08:25 Cloudy with Mist and Fog 66 19 64 18 94 94 Calm 29.80 1009 5 8 0.00 0.00
8:34 am 08:34 Cloudy with Mist and Fog 66 19 64 18 94 94 Calm 29.80 1009 6 10 0.00 0.00
8:53 am 08:53 Cloudy 67 19.4 65 18.3 93 93 Calm 29.85 1011 8 13 0.00 0.00
9:04 am 09:04 Cloudy 68 20 65 18.3 90 90 S 3 6 29.80 1009 9 14 0.00 0.00
9:53 am 09:53 Cloudy 71 21.7 65 18.3 81 81 W 6 9 29.85 1011 10 16 0.00 0.00
10:11 am 10:11 Cloudy 71 21.7 64 17.8 79 79 WSW 6 9 29.77 1008 10 16 0.00 0.00
10:48 am 10:48 Partly Cloudy 73 23 64 18 74 74 SSW 6 9 29.77 1008 10 16 0.00 0.00
10:53 am 10:53 Mostly Sunny 74 23.3 65 18.3 74 74 VRB 3 6 29.83 1010 10 16 0.00 0.00
11:53 am 11:53 Sunny 77 25 66 18.9 69 69 SSW 7 11 29.82 1010 9 14 0.00 0.00
12:53 pm 12:53 Sunny 82 27.8 66 18.9 58 58 VRB 7 11 29.81 1010 10 16 0.00 0.00
1:53 pm 13:53 Sunny 85 29.4 68 20 57 57 SSW 5 7 29.80 1009 10 16 0.00 0.00
2:53 pm 14:53 Sunny 86 30 68 20 55 55 Calm 29.78 1009 10 16 0.00 0.00
3:53 pm 15:53 Sunny 90 32.2 65 18.3 44 44 SSW 3 6 29.77 1008 10 16 0.00 0.00
4:53 pm 16:53 Sunny 91 32.8 66 18.9 44 44 E 7 11 29.76 1008 10 16 0.00 0.00
5:53 pm 17:53 Sunny 90 32.2 68 20 48 48 SE 6 9 29.75 1008 10 16 0.00 0.00
6:53 pm 18:53 Sunny 89 31.7 70 21.1 53 53 SE 3 6 29.74 1007 10 16 0.00 0.00
7:53 pm 19:53 Sunny 84 28.9 71 21.7 65 65 SE 8 13 29.75 1007 10 16 0.00 0.00
8:53 pm 20:53 Sunny 80 26.7 72 22.2 76 76 SSE 7 11 29.76 1008 10 16 0.00 0.00
9:53 pm 21:53 Clear 77 25 71 21.7 82 82 SSW 6 9 29.78 1008 10 16 0.00 0.00
10:53 pm 22:53 Clear 75 23.9 70 21.1 84 84 SE 7 11 29.78 1008 10 16 0.00 0.00
11:53 pm 23:53 Clear 75 23.9 70 21.1 84 84 SSE 6 9 29.77 1008 10 16 0.00 0.00

Powered by AerisWeather